BCS1TQ EINN-EDDP

Flight info

Callsign BCS1TQ
Flight time 1h 58m
Altitude 37000
Route PELIG3B PELIG DCT LIFFY UL975 WAL M16 DOLAS L603 LAMSO DCT NORTA/N0414F230 DCT ADMOS T959 KOJEC KOJEC1R
Aircraft B738/M-SDE2E3FGHIRWXY/LB1

Departure

Time 2026-05-07 17:23
Airport Shannon Airport (EINN)

Arrival

Time 2026-05-07 19:21
Airport Leipzig/Halle Airport (EDDP)
Time Latitude Longitude Altitude Speed Heading
2026-05-07 16:55 52.69129 -8.91510 40 ft 0 kts 191°
2026-05-07 17:15 52.69141 -8.91506 40 ft 4 kts 195°
2026-05-07 17:15 52.69165 -8.91489 36 ft 4 kts 223°
2026-05-07 17:15 52.69173 -8.91466 39 ft 3 kts 306°
2026-05-07 17:16 52.69172 -8.91462 38 ft 1 kts 311°
2026-05-07 17:18 52.69172 -8.91463 38 ft 1 kts 311°
2026-05-07 17:18 52.69181 -8.91480 39 ft 4 kts 311°
2026-05-07 17:18 52.69208 -8.91522 39 ft 7 kts 326°
2026-05-07 17:18 52.69271 -8.91521 39 ft 12 kts 18°
2026-05-07 17:19 52.69370 -8.91467 38 ft 17 kts 18°
2026-05-07 17:19 52.69500 -8.91397 37 ft 22 kts 18°
2026-05-07 17:19 52.69654 -8.91314 35 ft 24 kts 19°
2026-05-07 17:19 52.69819 -8.91221 34 ft 25 kts 21°
2026-05-07 17:20 52.69986 -8.91127 32 ft 25 kts 18°
2026-05-07 17:20 52.70143 -8.91040 30 ft 23 kts 18°
2026-05-07 17:20 52.70293 -8.90958 29 ft 22 kts 18°
2026-05-07 17:20 52.70436 -8.90878 28 ft 22 kts 18°
2026-05-07 17:21 52.70577 -8.90799 31 ft 21 kts 18°
2026-05-07 17:21 52.70715 -8.90725 26 ft 20 kts 18°
2026-05-07 17:21 52.70851 -8.90668 24 ft 20 kts 357°
2026-05-07 17:21 52.70961 -8.90789 23 ft 19 kts 292°
2026-05-07 17:22 52.70908 -8.90976 25 ft 19 kts 232°
2026-05-07 17:22 52.70723 -8.91367 27 ft 78 kts 232°
2026-05-07 17:22 52.70256 -8.92365 37 ft 141 kts 233°
2026-05-07 17:22 52.69619 -8.93822 444 ft 163 kts 237°
2026-05-07 17:23 52.69059 -8.95410 1351 ft 161 kts 256°
2026-05-07 17:23 52.69227 -8.97232 2076 ft 172 kts 294°
2026-05-07 17:23 52.69731 -8.99090 2805 ft 181 kts 292°
2026-05-07 17:23 52.70235 -9.01032 3575 ft 186 kts 291°
2026-05-07 17:24 52.70746 -9.02998 4404 ft 189 kts 291°
2026-05-07 17:24 52.71268 -9.05015 5142 ft 192 kts 290°
2026-05-07 17:24 52.71806 -9.07063 5828 ft 197 kts 294°
2026-05-07 17:24 52.72763 -9.08701 6447 ft 207 kts 331°
2026-05-07 17:25 52.74222 -9.09039 6710 ft 232 kts 11°
2026-05-07 17:25 52.75824 -9.08139 6937 ft 255 kts 20°
2026-05-07 17:25 52.77542 -9.07029 7227 ft 278 kts 20°
2026-05-07 17:25 52.79385 -9.05846 7870 ft 287 kts 20°
2026-05-07 17:26 52.81259 -9.04661 8745 ft 289 kts 19°
2026-05-07 17:26 52.83147 -9.03484 9624 ft 291 kts 19°
2026-05-07 17:26 52.85059 -9.02305 10402 ft 295 kts 19°
2026-05-07 17:26 52.86972 -9.01133 11140 ft 299 kts 18°
2026-05-07 17:27 52.88929 -8.99938 11900 ft 302 kts 18°
2026-05-07 17:27 52.90921 -8.98724 12573 ft 309 kts 18°
2026-05-07 17:27 52.92977 -8.97471 13114 ft 320 kts 18°
2026-05-07 17:27 52.95082 -8.96070 13597 ft 334 kts 27°
2026-05-07 17:28 52.96905 -8.93556 13997 ft 349 kts 46°
2026-05-07 17:28 52.98550 -8.90486 14399 ft 362 kts 48°
2026-05-07 17:28 53.00206 -8.87285 14768 ft 375 kts 49°
2026-05-07 17:28 53.01929 -8.83944 15148 ft 386 kts 49°
2026-05-07 17:29 53.03714 -8.80506 15485 ft 399 kts 48°
2026-05-07 17:29 53.05568 -8.76962 15744 ft 413 kts 48°
2026-05-07 17:29 53.07479 -8.73325 16219 ft 419 kts 48°
2026-05-07 17:29 53.09404 -8.69666 16851 ft 422 kts 48°
2026-05-07 17:30 53.11351 -8.65966 17476 ft 425 kts 48°
2026-05-07 17:30 53.13306 -8.62241 18044 ft 429 kts 49°
2026-05-07 17:30 53.14992 -8.58111 18503 ft 434 kts 65°
2026-05-07 17:30 53.15846 -8.53303 19019 ft 435 kts 84°
2026-05-07 17:31 53.16089 -8.48335 19585 ft 435 kts 87°
2026-05-07 17:31 53.16258 -8.43259 20083 ft 438 kts 88°
2026-05-07 17:31 53.16412 -8.38171 20561 ft 441 kts 88°
2026-05-07 17:31 53.16572 -8.33043 21029 ft 444 kts 88°
2026-05-07 17:32 53.16745 -8.27885 21514 ft 447 kts 87°
2026-05-07 17:32 53.16928 -8.22701 21974 ft 449 kts 87°
2026-05-07 17:32 53.17119 -8.17489 22439 ft 452 kts 87°
2026-05-07 17:32 53.17310 -8.12307 22860 ft 455 kts 87°
2026-05-07 17:33 53.17504 -8.07032 23303 ft 457 kts 87°
2026-05-07 17:33 53.17697 -8.01725 23692 ft 460 kts 87°
2026-05-07 17:33 53.17888 -7.96385 24047 ft 462 kts 87°
2026-05-07 17:33 53.18078 -7.91023 24391 ft 464 kts 87°
2026-05-07 17:34 53.18266 -7.85631 24750 ft 466 kts 87°
2026-05-07 17:34 53.18451 -7.80227 25094 ft 468 kts 87°
2026-05-07 17:34 53.18636 -7.74786 25423 ft 470 kts 87°
2026-05-07 17:34 53.18818 -7.69329 25737 ft 472 kts 87°
2026-05-07 17:35 53.18998 -7.63843 26045 ft 474 kts 88°
2026-05-07 17:35 53.19177 -7.58348 26374 ft 475 kts 88°
2026-05-07 17:35 53.19354 -7.52829 26748 ft 476 kts 88°
2026-05-07 17:35 53.19528 -7.47314 27061 ft 477 kts 88°
2026-05-07 17:36 53.19700 -7.41837 27300 ft 480 kts 88°
2026-05-07 17:36 53.19873 -7.36181 27600 ft 482 kts 88°
2026-05-07 17:36 53.20207 -7.30709 28024 ft 481 kts 79°
2026-05-07 17:36 53.20988 -7.25294 28464 ft 479 kts 75°
2026-05-07 17:37 53.21890 -7.19937 28844 ft 479 kts 74°
2026-05-07 17:37 53.22822 -7.14604 29215 ft 479 kts 74°
2026-05-07 17:37 53.23745 -7.09267 29631 ft 478 kts 75°
2026-05-07 17:37 53.24647 -7.03910 30031 ft 477 kts 75°
2026-05-07 17:38 53.25519 -6.98578 30371 ft 476 kts 75°
2026-05-07 17:38 53.26374 -6.93241 30722 ft 475 kts 75°
2026-05-07 17:38 53.27216 -6.87912 31068 ft 474 kts 76°
2026-05-07 17:38 53.28050 -6.82584 31379 ft 473 kts 76°
2026-05-07 17:39 53.28878 -6.77273 31713 ft 472 kts 76°
2026-05-07 17:39 53.29706 -6.71955 32073 ft 470 kts 76°
2026-05-07 17:39 53.30517 -6.66734 32418 ft 469 kts 76°
2026-05-07 17:39 53.31335 -6.61452 32692 ft 469 kts 76°
2026-05-07 17:40 53.32149 -6.56184 33002 ft 469 kts 76°
2026-05-07 17:40 53.32965 -6.50888 33326 ft 467 kts 76°
2026-05-07 17:40 53.33775 -6.45621 33649 ft 466 kts 76°
2026-05-07 17:40 53.34581 -6.40357 33921 ft 466 kts 76°
2026-05-07 17:41 53.35383 -6.35098 34133 ft 467 kts 76°
2026-05-07 17:41 53.36185 -6.29827 34324 ft 467 kts 76°
2026-05-07 17:41 53.36986 -6.24545 34502 ft 468 kts 76°
2026-05-07 17:41 53.37784 -6.19260 34681 ft 469 kts 76°
2026-05-07 17:42 53.38581 -6.13968 34882 ft 469 kts 76°
2026-05-07 17:42 53.39369 -6.08723 35085 ft 469 kts 76°
2026-05-07 17:42 53.40163 -6.03417 35258 ft 470 kts 76°
2026-05-07 17:42 53.40957 -5.98091 35419 ft 471 kts 76°
2026-05-07 17:43 53.41750 -5.92753 35608 ft 471 kts 76°
2026-05-07 17:43 53.42542 -5.87410 35802 ft 471 kts 76°
2026-05-07 17:43 53.43329 -5.82079 35980 ft 472 kts 77°
2026-05-07 17:43 53.44115 -5.76733 36147 ft 472 kts 77°
2026-05-07 17:44 53.44900 -5.71379 36331 ft 473 kts 77°
2026-05-07 17:44 53.45674 -5.66088 36515 ft 473 kts 77°
2026-05-07 17:44 53.46456 -5.60724 36701 ft 473 kts 77°
2026-05-07 17:44 53.47235 -5.55358 36860 ft 473 kts 77°
2026-05-07 17:45 53.47994 -5.44400 36956 ft 474 kts 94°
2026-05-07 17:45 53.47597 -5.33359 36957 ft 472 kts 95°
2026-05-07 17:46 53.47224 -5.22445 36964 ft 470 kts 94°
2026-05-07 17:46 53.46905 -5.11503 36963 ft 468 kts 95°
2026-05-07 17:47 53.46564 -5.00632 36974 ft 466 kts 95°
2026-05-07 17:47 53.46213 -4.89760 36977 ft 466 kts 95°
2026-05-07 17:48 53.45856 -4.78966 36987 ft 466 kts 95°
2026-05-07 17:48 53.45490 -4.68092 36990 ft 467 kts 95°
2026-05-07 17:49 53.45113 -4.57198 36987 ft 468 kts 96°
2026-05-07 17:49 53.44723 -4.46293 36993 ft 469 kts 96°
2026-05-07 17:50 53.44325 -4.35336 36988 ft 470 kts 96°
2026-05-07 17:50 53.43916 -4.24428 36987 ft 471 kts 96°
2026-05-07 17:51 53.43494 -4.13454 36985 ft 471 kts 96°
2026-05-07 17:51 53.43066 -4.02483 36983 ft 471 kts 96°
2026-05-07 17:52 53.42625 -3.91513 36981 ft 471 kts 96°
2026-05-07 17:52 53.42176 -3.80624 36988 ft 471 kts 96°
2026-05-07 17:53 53.41716 -3.69673 36986 ft 470 kts 96°
2026-05-07 17:53 53.41248 -3.58740 36992 ft 469 kts 96°
2026-05-07 17:54 53.40768 -3.47838 36985 ft 468 kts 96°
2026-05-07 17:54 53.40282 -3.37011 36994 ft 467 kts 96°
2026-05-07 17:55 53.39786 -3.26157 36996 ft 466 kts 96°
2026-05-07 17:55 53.39283 -3.15325 37011 ft 466 kts 97°
2026-05-07 17:56 53.38831 -3.04550 37023 ft 465 kts 96°
2026-05-07 17:56 53.38441 -2.93717 37028 ft 465 kts 95°
2026-05-07 17:57 53.38109 -2.84714 37019 ft 465 kts 96°
2026-05-07 17:57 53.37617 -2.72078 37026 ft 464 kts 96°
2026-05-07 17:58 53.37184 -2.61339 37021 ft 464 kts 96°
2026-05-07 17:58 53.36738 -2.50542 37013 ft 464 kts 96°
2026-05-07 17:59 53.36284 -2.39740 37023 ft 464 kts 96°
2026-05-07 17:59 53.35825 -2.29030 37024 ft 464 kts 96°
2026-05-07 18:00 53.35018 -2.18348 37029 ft 462 kts 102°
2026-05-07 18:00 53.33869 -2.07775 37021 ft 462 kts 103°
2026-05-07 18:01 53.32724 -1.97206 37022 ft 462 kts 102°
2026-05-07 18:01 53.31611 -1.86608 37021 ft 462 kts 102°
2026-05-07 18:02 53.30128 -1.72487 37019 ft 462 kts 102°
2026-05-07 18:03 53.29001 -1.61898 37018 ft 462 kts 102°
2026-05-07 18:03 53.27861 -1.51327 37016 ft 462 kts 102°
2026-05-07 18:04 53.26711 -1.40741 37023 ft 462 kts 102°
2026-05-07 18:04 53.25556 -1.30180 37019 ft 462 kts 102°
2026-05-07 18:05 53.24399 -1.19698 37024 ft 461 kts 102°
2026-05-07 18:05 53.23227 -1.09161 37023 ft 461 kts 102°
2026-05-07 18:06 53.22044 -0.98614 37027 ft 461 kts 102°
2026-05-07 18:06 53.20853 -0.88072 37039 ft 461 kts 103°
2026-05-07 18:07 53.19660 -0.77629 37046 ft 461 kts 103°
2026-05-07 18:07 53.18448 -0.67126 37051 ft 461 kts 103°
2026-05-07 18:08 53.17228 -0.56615 37047 ft 461 kts 103°
2026-05-07 18:08 53.15999 -0.46111 37050 ft 461 kts 103°
2026-05-07 18:09 53.14769 -0.35685 37047 ft 461 kts 103°
2026-05-07 18:09 53.13519 -0.25169 37049 ft 461 kts 103°
2026-05-07 18:10 53.12264 -0.14690 37048 ft 461 kts 103°
2026-05-07 18:10 53.11000 -0.04226 37047 ft 461 kts 103°
2026-05-07 18:11 53.09726 0.06237 37050 ft 461 kts 103°
2026-05-07 18:11 53.08445 0.16684 37047 ft 461 kts 103°
2026-05-07 18:12 53.07159 0.27090 37047 ft 461 kts 103°
2026-05-07 18:12 53.05858 0.37531 37053 ft 461 kts 103°
2026-05-07 18:13 53.04546 0.47986 37055 ft 461 kts 103°
2026-05-07 18:13 53.03235 0.58357 37063 ft 461 kts 103°
2026-05-07 18:14 53.01906 0.68790 37066 ft 461 kts 103°
2026-05-07 18:14 53.00566 0.79225 37071 ft 461 kts 104°
2026-05-07 18:15 52.99220 0.89644 37073 ft 461 kts 104°
2026-05-07 18:15 52.97867 1.00045 37081 ft 461 kts 104°
2026-05-07 18:16 52.96618 1.10443 37083 ft 461 kts 102°
2026-05-07 18:16 52.95434 1.20914 37084 ft 462 kts 102°
2026-05-07 18:17 52.94235 1.31382 37090 ft 462 kts 102°
2026-05-07 18:17 52.93017 1.41792 37088 ft 462 kts 102°
2026-05-07 18:18 52.91776 1.52261 37087 ft 462 kts 103°
2026-05-07 18:18 52.90529 1.62701 37086 ft 462 kts 103°
2026-05-07 18:19 52.89278 1.73097 37088 ft 462 kts 103°
2026-05-07 18:19 52.88013 1.83524 37085 ft 462 kts 103°
2026-05-07 18:20 52.86736 1.93974 37092 ft 462 kts 103°
2026-05-07 18:20 52.85449 2.04419 37091 ft 462 kts 103°
2026-05-07 18:21 52.84157 2.14836 37096 ft 462 kts 103°
2026-05-07 18:21 52.82862 2.25191 37093 ft 462 kts 103°
2026-05-07 18:22 52.81551 2.35599 37092 ft 462 kts 103°
2026-05-07 18:22 52.80232 2.46003 37093 ft 462 kts 103°
2026-05-07 18:23 52.78902 2.56396 37095 ft 462 kts 103°
2026-05-07 18:23 52.77559 2.66798 37095 ft 462 kts 103°
2026-05-07 18:24 52.76212 2.77192 37094 ft 462 kts 103°
2026-05-07 18:24 52.74852 2.87580 37095 ft 462 kts 103°
2026-05-07 18:25 52.73492 2.97898 37096 ft 463 kts 104°
2026-05-07 18:25 52.72319 3.08374 37099 ft 463 kts 100°
2026-05-07 18:26 52.71337 3.18892 37097 ft 464 kts 100°
2026-05-07 18:26 52.70351 3.29409 37099 ft 464 kts 100°
2026-05-07 18:27 52.69329 3.39901 37104 ft 464 kts 101°
2026-05-07 18:27 52.68287 3.50340 37099 ft 464 kts 101°
2026-05-07 18:28 52.67224 3.60861 37104 ft 464 kts 101°
2026-05-07 18:28 52.66160 3.71289 37098 ft 464 kts 101°
2026-05-07 18:29 52.65080 3.81789 37094 ft 464 kts 101°
2026-05-07 18:29 52.63991 3.92288 37092 ft 465 kts 101°
2026-05-07 18:30 52.62891 4.02800 37097 ft 465 kts 101°
2026-05-07 18:30 52.61790 4.13223 37092 ft 465 kts 101°
2026-05-07 18:31 52.60672 4.23716 37095 ft 465 kts 101°
2026-05-07 18:31 52.59543 4.34216 37087 ft 465 kts 101°
2026-05-07 18:32 52.58407 4.44693 37085 ft 465 kts 101°
2026-05-07 18:32 52.57267 4.55116 37086 ft 465 kts 102°
2026-05-07 18:33 52.56112 4.65589 37084 ft 466 kts 102°
2026-05-07 18:33 52.54947 4.76060 37081 ft 466 kts 102°
2026-05-07 18:34 52.53771 4.86540 37076 ft 466 kts 102°
2026-05-07 18:34 52.52584 4.97033 37081 ft 466 kts 102°
2026-05-07 18:35 52.51398 5.07438 37083 ft 466 kts 102°
2026-05-07 18:35 52.50194 5.17900 37076 ft 466 kts 102°
2026-05-07 18:36 52.48978 5.28386 37077 ft 466 kts 102°
2026-05-07 18:36 52.47758 5.38826 37078 ft 467 kts 102°
2026-05-07 18:37 52.46532 5.49230 37074 ft 467 kts 102°
2026-05-07 18:37 52.45290 5.59685 37076 ft 467 kts 102°
2026-05-07 18:38 52.44034 5.70167 37075 ft 467 kts 102°
2026-05-07 18:38 52.42775 5.80603 37078 ft 467 kts 102°
2026-05-07 18:39 52.41513 5.90975 37081 ft 467 kts 103°
2026-05-07 18:39 52.40230 6.01439 37082 ft 467 kts 103°
2026-05-07 18:40 52.38943 6.11861 37085 ft 467 kts 103°
2026-05-07 18:40 52.37651 6.22238 37083 ft 467 kts 103°
2026-05-07 18:41 52.36342 6.32671 37083 ft 467 kts 103°
2026-05-07 18:41 52.35024 6.43101 37087 ft 467 kts 103°
2026-05-07 18:42 52.33702 6.53482 37088 ft 467 kts 103°
2026-05-07 18:42 52.32363 6.63913 37088 ft 468 kts 103°
2026-05-07 18:43 52.31027 6.74250 37087 ft 468 kts 103°
2026-05-07 18:43 52.29673 6.84649 37089 ft 468 kts 103°
2026-05-07 18:44 52.28310 6.95038 37092 ft 468 kts 103°
2026-05-07 18:44 52.26935 7.05442 37091 ft 468 kts 103°
2026-05-07 18:45 52.25788 7.14065 37091 ft 468 kts 103°
2026-05-07 18:45 52.24169 7.26153 37102 ft 468 kts 103°
2026-05-07 18:46 52.22997 7.34839 37108 ft 468 kts 103°
2026-05-07 18:46 52.21598 7.45137 37098 ft 468 kts 103°
2026-05-07 18:47 52.20178 7.55520 37104 ft 468 kts 104°
2026-05-07 18:47 52.18750 7.65889 37102 ft 468 kts 104°
2026-05-07 18:48 52.17311 7.76261 37099 ft 468 kts 104°
2026-05-07 18:48 52.15873 7.86556 37099 ft 468 kts 104°
2026-05-07 18:49 52.14418 7.96901 37105 ft 469 kts 104°
2026-05-07 18:49 52.12952 8.07255 37104 ft 469 kts 104°
2026-05-07 18:50 52.11486 8.17539 37108 ft 469 kts 104°
2026-05-07 18:50 52.10002 8.27877 37110 ft 469 kts 104°
2026-05-07 18:51 52.08509 8.38209 37111 ft 469 kts 104°
2026-05-07 18:51 52.07008 8.48528 37109 ft 469 kts 104°
2026-05-07 18:52 52.05506 8.58779 37106 ft 469 kts 104°
2026-05-07 18:52 52.03987 8.69084 37110 ft 469 kts 104°
2026-05-07 18:53 52.02457 8.79400 37064 ft 469 kts 104°
2026-05-07 18:53 52.01682 8.84594 36637 ft 473 kts 104°
2026-05-07 18:53 52.00908 8.89771 36251 ft 470 kts 104°
2026-05-07 18:53 52.00140 8.94887 35838 ft 465 kts 104°
2026-05-07 18:54 51.99376 8.99958 35461 ft 461 kts 104°
2026-05-07 18:54 51.98614 9.05008 35057 ft 460 kts 104°
2026-05-07 18:54 51.97853 9.10026 34447 ft 464 kts 104°
2026-05-07 18:54 51.97078 9.15122 33765 ft 466 kts 103°
2026-05-07 18:55 51.96296 9.20251 33043 ft 467 kts 104°
2026-05-07 18:55 51.95513 9.25370 32326 ft 468 kts 104°
2026-05-07 18:55 51.94729 9.30482 31627 ft 468 kts 104°
2026-05-07 18:55 51.93941 9.35601 30943 ft 467 kts 104°
2026-05-07 18:56 51.93151 9.40715 30274 ft 466 kts 104°
2026-05-07 18:56 51.92363 9.45805 29515 ft 465 kts 104°
2026-05-07 18:56 51.91572 9.50890 28775 ft 466 kts 104°
2026-05-07 18:56 51.90786 9.55938 28077 ft 470 kts 104°
2026-05-07 18:57 51.89976 9.61119 27385 ft 476 kts 104°
2026-05-07 18:57 51.89161 9.66312 26707 ft 477 kts 104°
2026-05-07 18:57 51.88339 9.71542 26048 ft 478 kts 104°
2026-05-07 18:57 51.87517 9.76759 25391 ft 478 kts 104°
2026-05-07 18:58 51.86691 9.81986 24757 ft 477 kts 104°
2026-05-07 18:58 51.85927 9.87180 24128 ft 472 kts 103°
2026-05-07 18:58 51.85224 9.92332 23480 ft 465 kts 102°
2026-05-07 18:58 51.84548 9.97407 22756 ft 459 kts 102°
2026-05-07 18:59 51.83886 10.02375 22073 ft 455 kts 102°
2026-05-07 18:59 51.83214 10.07355 21397 ft 451 kts 102°
2026-05-07 18:59 51.82540 10.12282 20719 ft 447 kts 103°
2026-05-07 18:59 51.81863 10.17174 20068 ft 444 kts 103°
2026-05-07 19:00 51.81188 10.22019 19471 ft 440 kts 103°
2026-05-07 19:00 51.80517 10.26807 18993 ft 434 kts 103°
2026-05-07 19:00 51.79851 10.31546 18512 ft 430 kts 103°
2026-05-07 19:00 51.79197 10.36184 18183 ft 424 kts 103°
2026-05-07 19:01 51.78552 10.40743 18110 ft 405 kts 103°
2026-05-07 19:01 51.77937 10.45081 18099 ft 387 kts 103°
2026-05-07 19:01 51.77342 10.49270 18113 ft 380 kts 103°
2026-05-07 19:01 51.76746 10.53447 18121 ft 382 kts 103°
2026-05-07 19:02 51.76148 10.57633 18125 ft 383 kts 103°
2026-05-07 19:02 51.75546 10.61834 18121 ft 384 kts 103°
2026-05-07 19:02 51.74942 10.66040 18110 ft 384 kts 103°
2026-05-07 19:02 51.74338 10.70232 18110 ft 384 kts 103°
2026-05-07 19:03 51.73741 10.74374 18110 ft 383 kts 103°
2026-05-07 19:03 51.73134 10.78566 18108 ft 383 kts 103°
2026-05-07 19:03 51.72524 10.82744 18112 ft 382 kts 104°
2026-05-07 19:03 51.71734 10.86829 18116 ft 382 kts 111°
2026-05-07 19:04 51.70770 10.90811 18115 ft 381 kts 112°
2026-05-07 19:04 51.69789 10.94790 18107 ft 381 kts 111°
2026-05-07 19:04 51.68849 10.98821 17723 ft 382 kts 110°
2026-05-07 19:04 51.67930 11.02814 17321 ft 378 kts 110°
2026-05-07 19:05 51.67024 11.06763 16838 ft 374 kts 110°
2026-05-07 19:05 51.66121 11.10688 16306 ft 373 kts 110°
2026-05-07 19:05 51.65217 11.14592 15829 ft 370 kts 110°
2026-05-07 19:05 51.64316 11.18447 15386 ft 366 kts 110°
2026-05-07 19:06 51.63416 11.22265 14947 ft 363 kts 110°
2026-05-07 19:06 51.61650 11.29664 14235 ft 345 kts 110°
2026-05-07 19:06 51.60794 11.33213 13849 ft 334 kts 110°
2026-05-07 19:07 51.59959 11.36654 13448 ft 325 kts 110°
2026-05-07 19:07 51.59143 11.40001 12968 ft 318 kts 110°
2026-05-07 19:07 51.58341 11.43283 12438 ft 313 kts 110°
2026-05-07 19:07 51.57548 11.46518 11922 ft 308 kts 110°
2026-05-07 19:08 51.56768 11.49696 11422 ft 304 kts 110°
2026-05-07 19:08 51.56141 11.52857 10918 ft 299 kts 99°
2026-05-07 19:08 51.55858 11.56177 10431 ft 294 kts 95°
2026-05-07 19:08 51.55643 11.59395 9932 ft 291 kts 95°
2026-05-07 19:09 51.55437 11.62611 9420 ft 288 kts 94°
2026-05-07 19:09 51.55236 11.65807 8893 ft 285 kts 94°
2026-05-07 19:09 51.55039 11.68957 8380 ft 282 kts 94°
2026-05-07 19:09 51.54845 11.72076 7892 ft 279 kts 94°
2026-05-07 19:10 51.54655 11.75164 7434 ft 275 kts 94°
2026-05-07 19:10 51.54452 11.78164 6972 ft 273 kts 100°
2026-05-07 19:10 51.53693 11.80934 6471 ft 274 kts 128°
2026-05-07 19:10 51.52215 11.82817 5955 ft 274 kts 155°
2026-05-07 19:11 51.50356 11.83398 5446 ft 275 kts 183°
2026-05-07 19:11 51.48561 11.82513 5116 ft 267 kts 212°
2026-05-07 19:11 51.47313 11.80455 5012 ft 250 kts 239°
2026-05-07 19:11 51.46510 11.78055 4988 ft 240 kts 244°
2026-05-07 19:12 51.45581 11.75909 4968 ft 239 kts 219°
2026-05-07 19:12 51.44116 11.74781 4810 ft 234 kts 188°
2026-05-07 19:12 51.42510 11.75029 4504 ft 233 kts 157°
2026-05-07 19:12 51.41229 11.76514 4215 ft 229 kts 125°
2026-05-07 19:13 51.40436 11.78717 4058 ft 229 kts 115°
2026-05-07 19:13 51.39735 11.81009 3993 ft 227 kts 111°
2026-05-07 19:13 51.39494 11.83399 4015 ft 209 kts 86°
2026-05-07 19:13 51.39556 11.85617 3978 ft 193 kts 86°
2026-05-07 19:14 51.39629 11.87671 3968 ft 176 kts 85°
2026-05-07 19:14 51.39713 11.89611 3988 ft 174 kts 85°
2026-05-07 19:14 51.39723 11.91547 3972 ft 176 kts 103°
2026-05-07 19:14 51.39048 11.93139 3998 ft 177 kts 146°
2026-05-07 19:15 51.37860 11.93608 3991 ft 181 kts 188°
2026-05-07 19:15 51.36763 11.92698 4002 ft 181 kts 230°
2026-05-07 19:15 51.36308 11.90865 3993 ft 180 kts 272°
2026-05-07 19:15 51.36693 11.89059 3892 ft 174 kts 313°
2026-05-07 19:16 51.37707 11.88120 3564 ft 171 kts 355°
2026-05-07 19:16 51.38841 11.88556 3197 ft 170 kts 38°
2026-05-07 19:16 51.39400 11.90141 3034 ft 169 kts 83°
2026-05-07 19:16 51.39553 11.92042 2994 ft 174 kts 77°
2026-05-07 19:17 51.39813 11.93921 2997 ft 172 kts 78°
2026-05-07 19:17 51.40005 11.95820 2989 ft 172 kts 82°
2026-05-07 19:17 51.40125 11.97727 2983 ft 172 kts 84°
2026-05-07 19:17 51.40216 11.99607 2981 ft 171 kts 84°
2026-05-07 19:18 51.40304 12.01543 2845 ft 176 kts 84°
2026-05-07 19:18 51.40392 12.03515 2593 ft 177 kts 84°
2026-05-07 19:18 51.40478 12.05461 2356 ft 174 kts 84°
2026-05-07 19:18 51.40564 12.07376 2118 ft 171 kts 84°
2026-05-07 19:19 51.40647 12.09225 1888 ft 161 kts 84°
2026-05-07 19:19 51.40725 12.10946 1688 ft 153 kts 84°
2026-05-07 19:19 51.40802 12.12637 1460 ft 151 kts 84°
2026-05-07 19:19 51.40877 12.14273 1239 ft 148 kts 84°
2026-05-07 19:20 51.40953 12.15929 1042 ft 149 kts 84°
2026-05-07 19:20 51.41029 12.17588 839 ft 151 kts 86°
2026-05-07 19:20 51.41094 12.19248 642 ft 148 kts 84°
2026-05-07 19:20 51.41173 12.20892 456 ft 148 kts 84°
2026-05-07 19:21 51.41253 12.22380 456 ft 115 kts 86°
2026-05-07 19:21 51.41300 12.23419 463 ft 72 kts 86°
2026-05-07 19:21 51.41275 12.24045 465 ft 51 kts 110°
2026-05-07 19:21 51.41212 12.24267 466 ft 3 kts 115°
2026-05-07 19:22 51.41202 12.24301 466 ft 3 kts 114°
2026-05-07 19:22 51.41195 12.24326 466 ft 0 kts 114°
2026-05-07 19:23 51.41194 12.24331 466 ft 2 kts 113°
2026-05-07 19:23 51.41174 12.24379 467 ft 9 kts 142°
2026-05-07 19:23 51.41092 12.24355 464 ft 16 kts 242°
2026-05-07 19:24 51.41065 12.24218 463 ft 9 kts 213°
2026-05-07 19:24 51.41041 12.24215 465 ft 1 kts 175°
2026-05-07 19:24 51.41026 12.24217 465 ft 4 kts 175°
2026-05-07 19:24 51.40987 12.24227 461 ft 7 kts 148°
2026-05-07 19:25 51.40984 12.24297 464 ft 2 kts 84°
2026-05-07 19:25 51.40985 12.24326 464 ft 3 kts 85°
2026-05-07 19:25 51.40986 12.24334 464 ft 0 kts 85°